Regional Weather Roundup
Issued by NWS Newport/Morehead, NC

Home | Current Version | Previous Version | Text Only | Print | Product List | Glossary On
Versions: 1 2 3 4 5 6 7 8 9 10 11 12 13 14 15 16 17 18 19 20 21 22 23 24 25 26 27 28 29 30 31 32 33 34 35 36 37 38 39 40 41 42 43 44 45 46 47 48 49 50
000
ASUS42 KMHX 062325
RWRMHX
WEATHER ROUNDUP FOR EASTERN NORTH CAROLINA
NATIONAL WEATHER SERVICE NEWPORT/MOREHEAD CITY NC
700 PM EDT FRI MAY 06 2016

NOTE: "FAIR" INDICATES FEW OR NO CLOUDS BELOW 12,000 FEET
WITH NO SIGNIFICANT WEATHER AND/OR OBSTRUCTIONS TO VISIBILITY

NCZ015>017-031-032-045>047-102-103-070000-
NORTH COAST

CITY           SKY/WX    TMP DP  RH WIND       PRES   REMARKS
EDENTON        CLOUDY    63  53  69 W8        29.75R
ELIZABETH CITY CLOUDY    60  51  72 SW5       29.73R
KITTY HAWK     CLOUDY    59  52  77 CALM      29.73R
MANTEO         CLOUDY    60  52  76 NW5       29.75R

$$

NCZ045>047-081-094-103-104-070000-
CENTRAL COAST

CITY           SKY/WX    TMP DP  RH WIND       PRES   REMARKS
FRISCO         MOCLDY    61  51  70 W6        29.74R
SWANQUARTER    NOT AVBL

$$

NCZ095-097-098-100-101-070000-
SOUTHERN COAST

CITY           SKY/WX    TMP DP  RH WIND       PRES   REMARKS
BEAUFORT       MOSUNNY   63  51  65 W10       29.76R
CEDAR ISLAND   NOT AVBL
JACKSONVILLE   PTSUNNY   65  51  60 W8        29.76R
PINEY ISLAND   CLOUDY   N/A N/A N/A W10       29.75R
WILMINGTON     CLOUDY    65  50  58 W13       29.78R


$$

NCZ011>013-027>030-043-044-078>080-089-090>093-098-070000-
COASTAL PLAIN

CITY           SKY/WX    TMP DP  RH WIND       PRES   REMARKS
AHOSKIE        CLOUDY    58  53  81 CALM      29.77R
CLINTON        MOSUNNY   64  53  68 NW3       29.79R
ELIZABETHTOWN  PTSUNNY   62  54  76 CALM      29.79R
GOLDSBORO      MOSUNNY   61  55  78 W9        29.76R
GREENVILLE     CLOUDY    63  55  77 CALM      29.79R
HAVELOCK       CLOUDY    63  52  67 W7        29.77R
KENANSVILLE    CLOUDY    62  51  66 CALM      29.79R
KINSTON        MOSUNNY   63  52  67 CALM      29.77
NEW BERN       CLOUDY    63  52  67 W7        29.77R
RICHLANDS      CLOUDY    64  51  62 W5        29.77R
ROCKY MOUNT    PTSUNNY   62  50  64 W5        29.76R
WASHINGTON     CLOUDY    61  52  72 CALM      29.76R
WHITEVILLE     NOT AVBL

$$

AMZ130-135-150-152-154-156-158-170-250-252-270-ANZ085-086-088-633-658-670-070000-
MARINE OBSERVATIONS

STATION/POSITION TIME  TEMP    WIND        PRES    WAVE   SWELL
                       AIR SEA DIR/SP/G            HT/PER HT/PER
                 (UTC) (F)     (DEG/KT/KT) (MB)    (FT/S) (FT/S)
CHESAPEAKE LIGHT 2300   54     160/ 10/ 11 1007.3
64 E VA BEACH    2250   54 54  350/  2/  4 1006.6    6/ 9   7/ 9
DUCK             2200   57 58              1006.1
2 E DUCK         2211      60                N/A     4/10   2/11
OREGON INLET     2200   59 61              1006.3
13E OREGON INLT  2200      57                N/A     5/ 8   5/ 8
HATTERAS CG      2200   63 66              1006.3
DIAMOND BUOY     2250   63 74  270/ 12/ 16 1007.2    5/ 9   5/ 9
CAPE LOOKOUT     2300   64     280/ 12/ 15 1007.3
BEAUFORT LAB     2200   64 66              1006.4
30 SE NEW RVR IN 2225      72                N/A     4/ 7   2/11
27 SE WRIGHTSVLE 2308   66 72  280/ 10/ 14 1008.4
5 SE WRIGHTSVLE  2208   66 69  280/ 10/ 14 1008.4
225 S CAPE HAT   2250   69 73  260/ 12/ 14 1008.7    8/ 8   7/ 8
41 SE CHARLESTON 2250   68 73  250/ 12/ 14 1008.7    2/ 4   2/ 8

$$




USA.gov is the U.S. government's official web portal to all federal, state and local government web resources and services.